Regional Weather Roundup
Issued by NWS Cleveland, OH

Home | Current Version | Previous Version | Graphics & Text | Print | Product List | Glossary On
Versions: 1 2 3 4 5 6 7 8 9 10 11 12 13 14 15 16 17 18 19 20 21 22 23 24 25 26 27 28 29 30 31 32 33 34 35 36 37 38 39 40 41 42 43 44 45 46 47 48 49 50
000
ASUS41 KCLE 142302
RWRCLE
OHIO REGIONAL WEATHER ROUNDUP
NATIONAL WEATHER SERVICE CLEVELAND, OH
600 PM EST THU DEC 14 2017

NOTE: "FAIR" INDICATES FEW OR NO CLOUDS BELOW 12,000 FEET WITH NO
SIGNIFICANT WEATHER AND/OR OBSTRUCTIONS TO VISIBILITY.

OHZ001>008-015>018-024>027-034-035-043-044-150000-
   NORTHWEST OHIO

CITY           SKY/WX    TMP DP  RH WIND       PRES   REMARKS
DEFIANCE       CLOUDY    14   6  70 CALM      30.08R
FINDLAY        CLOUDY    15   3  59 W5        30.07R WCI   8
TOLEDO EXPRESS PTCLDY    12   5  73 SW7       30.07R WCI   1
TOLEDO EXEC    PTCLDY    12   5  73 SW7       30.09R WCI   1
LIMA           CLOUDY    18  11  74 CALM      30.06R
$$

OHZ009>014-019>023-028>033-038-089-150000-
   NORTHEAST OHIO

CITY           SKY/WX    TMP DP  RH WIND       PRES   REMARKS
CLE-HOPKINS    CLOUDY    21  14  74 W9        30.08R WCI  11
CLE-LAKEFRONT  CLOUDY    23  14  68 SW13      30.05R WCI  11
CUY CO. ARPT   MOCLDY    23  14  68 W12       30.04R WCI  12
LORAIN-ELYRIA  PTCLDY    13   6  74 SW5       30.07R WCI   5
ASHTABULA      FLURRIES  22  14  71 W8        30.02R WCI  12
AKRON-CANTON   MOCLDY    20  11  68 W7        30.01R WCI  11
WOOSTER        PTCLDY    10   7  87 W6        30.04R WCI   0
MANSFIELD      PTCLDY    15  11  83 SW3       30.03R
YOUNGSTOWN     FLURRIES  22  14  71 W3        30.00R
$$

OHZ042-051>053-060>062-070>072-077>081-150000-
  SOUTHWEST OHIO

CITY           SKY/WX    TMP DP  RH WIND       PRES   REMARKS
CINC-COVINGTON CLOUDY    25  17  72 N6        30.06R WCI  18
CINC-LUNKEN    CLOUDY    26  17  68 CALM      30.11R
HAMILTON       CLOUDY    23  17  78 CALM      30.10R
DAYTON         MOCLDY    22  16  78 SW5       30.07R WCI  16
WRIGHT-PAT AFB MOCLDY    22  14  70 SW3       30.07R
DAYTON GENERAL PTCLDY    23  15  71 NW3       30.06R
WILMINGTON     CLOUDY    21  15  78 CALM      30.05R
$$

OHZ036-037-039>041-045>050-054>059-063>069-073>076-082>088-150000-
  CENTRAL AND SOUTHEAST OHIO

CITY           SKY/WX    TMP DP  RH WIND       PRES   REMARKS
COLUMBUS       MOCLDY    24  16  71 N5        30.06R WCI  18
OSU AIRPORT    PTCLDY    21  16  81 CALM      30.06R
BOLTON FIELD   PTCLDY    23  16  74 CALM      30.06R
RICKENBACK AFB PTCLDY    23  15  70 SW3       30.07R
NEWARK         CLOUDY    22  15  75 NW6       30.05R WCI  14
MARION         PTCLDY    17  12  80 NW6       30.06R WCI   9
LANCASTER      CLOUDY    20  14  77 CALM      30.06R
ZANESVILLE     CLOUDY    25  14  63 W3        30.04R
NEW PHILLY     NOT AVBL
$$




USA.gov is the U.S. government's official web portal to all federal, state and local government web resources and services.